Date String (YYYY-MM-DD hh:mm:ss) UTC,Instrument flags,Ambient pressure (hPa),Sample flow (lpm),Bypass flow (lpm),Sample temperature (°C),Ambient temperature (°C),ASC tube jacket temperature (°C),LED temperature (°C),Box temperature (°C),Sample RH (%),Span deviation,Mass concentration (μg/m³),Mass concentration (μg/m³),Mass concentration (μg/m³)
DateTimeUTC,F1_M11,P_M11,Q1_M11,Q2_M11,T1_M11,T2_M11,T3_M11,T4_M11,T5_M11,U1_M11,ZSPAN_M11,X2_M11,X0_M11,X1_M11
2022-02-05 12:00:00,,0826.5,4.99,0.00,21.1,20.3,00.0,30.5,22.5,05.6,0000.0,0000.37,0000.57,0000.30
2022-02-05 12:01:00,,0826.5,5.00,0.00,21.2,21.2,00.0,30.5,22.8,05.3,0000.0,0000.38,0000.60,0000.30
2022-02-05 12:02:00,,0826.5,5.00,0.00,21.4,22.3,00.0,30.5,23.2,05.1,0000.0,0000.38,0000.58,0000.30
2022-02-05 12:03:00,,0826.5,5.00,0.00,21.6,22.7,00.0,30.6,23.4,05.7,0000.0,0000.38,0000.57,0000.30
2022-02-05 12:04:00,,0826.5,5.01,0.00,21.6,22.2,00.0,30.6,23.3,05.3,0000.0,0000.38,0000.58,0000.30
2022-02-05 12:05:00,,0826.5,5.00,0.00,21.6,21.9,00.0,30.6,23.2,05.3,0000.0,0000.37,0000.54,0000.30
2022-02-05 12:06:00,,0826.5,5.01,0.00,21.5,21.6,00.0,30.6,23.2,05.4,0000.0,0000.37,0000.54,0000.29
2022-02-05 12:07:00,,0826.5,5.00,0.00,21.5,21.4,00.0,30.6,23.1,05.3,0000.0,0000.38,0000.58,0000.29
2022-02-05 12:08:00,,0826.5,4.99,0.00,21.5,21.2,00.0,30.5,23.1,05.6,0000.0,0000.40,0000.63,0000.30
2022-02-05 12:09:00,,0826.5,5.01,0.00,21.5,21.1,00.0,30.5,23.1,05.8,0000.0,0000.43,0000.67,0000.30
2022-02-05 12:10:00,,0826.5,5.00,0.00,21.5,21.0,00.0,30.5,23.0,05.6,0000.0,0000.41,0000.63,0000.31
2022-02-05 12:11:00,,0826.5,4.99,0.00,21.4,20.9,00.0,30.5,23.0,06.1,0000.0,0000.42,0000.64,0000.31
2022-02-05 12:12:00,,0826.5,5.01,0.00,21.4,20.8,00.0,30.5,23.0,05.9,0000.0,0000.42,0000.63,0000.31
2022-02-05 12:13:00,,0826.4,5.01,0.00,21.4,20.8,00.0,30.5,23.0,06.1,0000.0,0000.43,0000.67,0000.32
2022-02-05 12:14:00,,0826.4,4.98,0.00,21.4,20.7,00.0,30.5,23.0,06.0,0000.0,0000.44,0000.67,0000.32
2022-02-05 12:15:00,,0826.4,5.00,0.00,21.4,20.7,00.0,30.5,23.0,06.3,0000.0,0000.47,0000.80,0000.32
2022-02-05 12:16:00,,0826.3,5.00,0.00,21.3,20.7,00.0,30.5,22.9,06.6,0000.0,0000.48,0001.58,0000.32
2022-02-05 12:17:00,,0826.2,5.00,0.00,21.3,20.7,00.0,30.4,22.9,06.5,0000.0,0000.48,0002.95,0000.33
2022-02-05 12:18:00,,0826.2,5.01,0.00,21.4,21.4,00.0,30.5,23.1,06.2,0000.0,0000.48,0002.95,0000.34
2022-02-05 12:19:00,,0826.2,4.99,0.00,21.6,22.3,00.0,30.5,23.4,06.0,0000.0,0000.48,0002.95,0000.33
2022-02-05 12:20:00,,0826.3,4.99,0.00,21.7,22.8,00.0,30.6,23.7,06.2,0000.0,0000.46,0002.93,0000.33
2022-02-05 12:21:00,,0826.3,5.01,0.00,21.8,22.5,00.0,30.6,23.7,06.1,0000.0,0000.47,0002.95,0000.33
2022-02-05 12:22:00,,0826.3,5.00,0.00,21.8,22.1,00.0,30.6,23.5,06.1,0000.0,0000.47,0003.03,0000.33
2022-02-05 12:23:00,,0826.2,5.00,0.00,21.7,21.8,00.0,30.6,23.4,06.2,0000.0,0000.49,0004.10,0000.33
2022-02-05 12:24:00,,0826.3,5.00,0.00,21.7,21.6,00.0,30.6,23.3,06.2,0000.0,0000.50,0004.18,0000.33
2022-02-05 12:25:00,,0826.2,5.01,0.00,21.7,21.4,00.0,30.6,23.3,06.2,0000.0,0000.54,0004.36,0000.34
2022-02-05 12:26:00,,0826.2,4.99,0.00,21.6,21.2,00.0,30.6,23.2,06.1,0000.0,0000.52,0005.63,0000.34
2022-02-05 12:27:00,,0826.2,5.01,0.00,21.6,21.0,00.0,30.6,23.1,06.1,0000.0,0000.53,0005.11,0000.35
2022-02-05 12:28:00,,0826.2,4.99,0.00,21.5,20.8,00.0,30.6,23.1,06.2,0000.0,0000.54,0003.82,0000.35
2022-02-05 12:29:00,,0826.2,5.00,0.00,21.5,20.7,00.0,30.6,23.0,06.1,0000.0,0000.55,0003.86,0000.34
2022-02-05 12:30:00,,0826.3,5.01,0.00,21.4,20.6,00.0,30.6,23.0,06.2,0000.0,0000.58,0004.57,0000.35
2022-02-05 12:31:00,,0826.3,4.99,0.00,21.4,20.5,00.0,30.5,22.9,06.0,0000.0,0000.58,0004.70,0000.35
2022-02-05 12:32:00,,0826.2,4.99,0.00,21.4,20.9,00.0,30.5,23.0,06.4,0000.0,0000.57,0004.69,0000.35
2022-02-05 12:33:00,,0826.3,5.00,0.00,21.5,21.8,00.0,30.6,23.3,06.5,0000.0,0000.57,0004.67,0000.35
2022-02-05 12:34:00,,0826.5,5.01,0.00,21.7,22.6,00.0,30.6,23.7,06.6,0000.0,0000.57,0003.58,0000.35
2022-02-05 12:35:00,,0826.5,4.99,0.00,21.8,22.5,00.0,30.6,23.7,06.4,0000.0,0000.58,0003.57,0000.35
2022-02-05 12:36:00,,0826.6,5.00,0.00,21.8,22.2,00.0,30.7,23.6,06.3,0000.0,0000.56,0003.55,0000.35
2022-02-05 12:37:00,,0826.5,5.01,0.00,21.7,21.8,00.0,30.7,23.4,06.5,0000.0,0000.57,0002.39,0000.36
2022-02-05 12:38:00,,0826.5,4.99,0.00,21.7,21.6,00.0,30.7,23.3,06.4,0000.0,0000.57,0001.94,0000.36
2022-02-05 12:39:00,,0826.6,4.99,0.00,21.7,21.3,00.0,30.7,23.2,06.3,0000.0,0000.59,0001.97,0000.36
2022-02-05 12:40:00,,0826.5,5.01,0.00,21.6,21.1,00.0,30.6,23.2,06.1,0000.0,0000.59,0001.95,0000.38
2022-02-05 12:41:00,,0826.7,5.01,0.00,21.6,21.0,00.0,30.6,23.1,06.5,0000.0,0000.57,0001.32,0000.38
2022-02-05 12:42:00,,0826.7,4.99,0.00,21.5,20.9,00.0,30.6,23.1,06.5,0000.0,0000.57,0001.10,0000.38
2022-02-05 12:43:00,,0826.6,5.01,0.00,21.5,20.8,00.0,30.6,23.0,06.7,0000.0,0000.60,0001.24,0000.39
2022-02-05 12:44:00,,0826.6,5.00,0.00,21.4,20.7,00.0,30.6,23.0,06.1,0000.0,0000.61,0001.29,0000.39
2022-02-05 12:45:00,,0826.7,5.00,0.00,21.5,21.2,00.0,30.6,23.1,06.3,0000.0,0000.62,0001.32,0000.40
2022-02-05 12:46:00,,0826.9,4.99,0.00,21.6,22.2,00.0,30.6,23.4,06.1,0000.0,0000.60,0001.25,0000.40
2022-02-05 12:47:00,,0826.8,5.01,0.00,21.8,22.9,00.0,30.7,23.8,06.4,0000.0,0000.59,0001.09,0000.41
2022-02-05 12:48:00,,0826.9,4.99,0.00,21.9,23.1,00.0,30.7,23.9,06.5,0000.0,0000.61,0001.11,0000.42
2022-02-05 12:49:00,,0826.7,5.00,0.00,21.9,22.6,00.0,30.7,23.8,06.2,0000.0,0000.59,0001.06,0000.42
2022-02-05 12:50:00,,0826.8,5.00,0.00,21.9,22.2,00.0,30.8,23.6,06.1,0000.0,0000.59,0001.03,0000.42
2022-02-05 12:51:00,,0826.8,4.99,0.00,21.9,21.9,00.0,30.8,23.5,05.8,0000.0,0000.57,0000.98,0000.41
2022-02-05 12:52:00,,0826.7,5.00,0.00,21.8,21.7,00.0,30.8,23.5,06.2,0000.0,0000.55,0000.95,0000.41
2022-02-05 12:53:00,,0826.7,5.00,0.00,21.8,21.4,00.0,30.8,23.4,06.4,0000.0,0000.57,0001.45,0000.41
2022-02-05 12:54:00,,0826.6,4.99,0.00,21.7,21.2,00.0,30.8,23.3,06.7,0000.0,0000.54,0001.50,0000.40
2022-02-05 12:55:00,,0826.5,5.02,0.00,21.7,21.1,00.0,30.7,23.2,06.6,0000.0,0000.53,0001.46,0000.40
2022-02-05 12:56:00,,0826.5,5.00,0.00,21.7,20.9,00.0,30.7,23.2,06.6,0000.0,0000.57,0001.77,0000.40
2022-02-05 12:57:00,,0826.5,5.00,0.00,21.6,20.8,00.0,30.7,23.2,06.7,0000.0,0000.58,0002.13,0000.39
2022-02-05 12:58:00,,0826.5,5.01,0.00,21.6,20.7,00.0,30.7,23.2,06.8,0000.0,0000.60,0002.16,0000.39
2022-02-05 12:59:00,,0826.7,5.00,0.00,21.6,20.6,00.0,30.7,23.1,06.7,0000.0,0000.61,0002.20,0000.38
